Home   Weather   Salzgitter   Past weeks

Flag for Germany Past Weather in Salzgitter, Lower Saxony, Germany — Yesterday and Last 2 Weeks

Now
63 °F

Partly sunny.


Feels Like: 63 °F
Forecast: 51 / 68 °F
Wind: 8 mph from Northwest

Location: Braunschweig Wolfsburg

Current Time: Sep 26, 2016 at 11:01:52 AM

Latest Report: Sep 26, 2016 at 10:20 AM


Visibility: N/A

Pressure: 30.18 "Hg

Humidity: 77%

Dew Point: 55 °F

Location of SalzgitterLocation

Past Weather in Salzgitter — Graph

°F

Salzgitter Temperature Yesterday

Maximum temperature yesterday: 75 °F (at 4:50 PM)
Minimum temperature yesterday: 61 °F (at 10:20 PM)
Average temperature yesterday: 67 °F

High & Low Weather Summary for the Past Weeks

 TemperatureHumidityPressure
High91 °F (Sep 12, 2:50 PM)100% (Sep 17, 8:50 AM)30.30 "Hg (Sep 17, 8:50 AM)
Low46 °F (Sep 22, 7:50 AM)24% (Sep 13, 4:20 PM)29.89 "Hg (Sep 15, 5:20 PM)
Average67 °F63%30.07 "Hg
* Reported Sep 11 12:50 PM — Sep 26 9:50 AM, Salzgitter, Weather by CustomWeather, © 2016

Note: Actual official high and low records may vary slightly from our data, if they occured in-between our weather recording intervals... More about our weather records

Advertising

Salzgitter Weather History for the Previous 24 Hours

Scroll right to see more
 ConditionsComfort  
Time TempWeatherWind HumidityBarometerVisibility
9:50 AM
Mon, Sep 26
63 °FPartly sunny.9 mph77%30.18 "HgN/A
9:20 AM61 °FPartly sunny.8 mph83%30.18 "HgN/A
8:50 AM59 °FOvercast.8 mph88%30.18 "HgN/A
8:20 AM59 °FOvercast.7 mph88%30.18 "HgN/A
7:50 AM59 °FMore clouds than sun.8 mph88%30.18 "HgN/A
7:20 AM59 °FOvercast.9 mph88%30.15 "HgN/A
6:50 AM59 °FOvercast.9 mph88%30.15 "HgN/A
6:20 AM59 °FOvercast.10 mph88%30.15 "HgN/A
10:20 PM
Sun, Sep 25
61 °FClear.6 mph63%30.07 "Hg10 mi
9:50 PM63 °FClear.6 mph56%30.07 "Hg10 mi
9:20 PM64 °FClear.6 mph56%30.07 "Hg10 mi
8:50 PM66 °FClear.7 mph49%30.07 "Hg10 mi
8:20 PM66 °FClear.5 mph49%30.07 "Hg10 mi
7:50 PM66 °FClear.5 mph52%30.07 "Hg10 mi
7:20 PM68 °FClear.6 mph49%30.07 "Hg10 mi
4:50 PM75 °FMild.9 mph36%30.07 "HgN/A
2:50 PM73 °FPassing clouds.10 mph38%30.07 "HgN/A
Weather by CustomWeather, © 2016

See weather overviewHow to use our weather pages